#timestamp,LO_Frequency,Hit,StdDev 
1599501615.2,286047000.6,N
1599501635.1,286046999.9,N
1599501636.0,286046999.9,N
1599501655.8,286047002.4,N
1599501675.7,286047000.1,N
1599501695.5,286047002.6,N
1599501715.3,286047002.2,N
1599501735.2,286047004.3,N
1599501755.0,286047004.3,N
1599501755.9,286047004.3,N
1599501775.7,286047002.6,N
1599501795.6,286047002.0,N
1599501815.4,286047001.8,N
1599501835.3,286047001.8,N
1599501855.1,286047003.6,N
1599501856.0,286047003.6,N
1599501875.8,286047004.2,N
1599501895.7,286047002.1,N
1599501915.5,286047001.3,N
1599501935.4,286047005.6,Y
1599501955.2,286047001.9,P
1599501975.0,286047004.0,P
1599501975.9,286047004.0,P
1599501995.8,286047000.4,N
1599502015.6,286047000.3,N
1599502035.5,286047000.0,N
1599502055.3,286047000.2,N
1599502075.1,286047000.0,N
1599502095.9,286047001.6,N
1599502115.7,286047000.4,N
1599502135.5,286047002.4,N
1599502155.4,286047001.5,N
1599502175.2,286046999.9,N
1599502195.6,286047002.5,N
1599502215.4,286047002.6,N
1599502235.3,286046999.9,N
1599502255.5,286047001.8,N
1599502275.4,286047001.8,N
1599502295.2,286047002.7,N
1599502315.1,286047000.2,N
1599502316.0,286047000.2,N
1599502335.8,286047001.3,N
1599502355.2,286047002.3,N
1599502375.0,286047001.8,N
1599502375.9,286047001.8,N
1599502395.8,286047002.5,N
1599502415.6,286047002.4,N
1599502435.4,286047000.3,N
1599502455.3,286047000.7,N
1599502505.1,286047000.0,E
1599502515.1,286047001.9,N
1599502516.0,286047001.9,P
1599502535.8,286047001.6,P
1599502555.6,286047002.5,Y
1599502575.5,286047000.0,P
1599502595.3,286047000.0,N
1599502615.2,286047000.3,N
1599502635.9,286047001.6,N
1599502655.7,286047011.1,Y
1599502675.6,286047009.4,P
1599502695.4,286047008.4,N
1599502715.3,286047007.5,N
1599502735.1,286047005.4,N
1599502755.9,286047006.0,N
1599502775.7,286047004.0,N
1599502795.5,286047003.1,N
1599502815.4,286047004.3,N
1599502835.2,286047002.0,N
1599502855.0,286047002.4,N
1599502855.9,286047002.4,N
1599502875.8,286047004.3,N
1599502895.6,286047001.7,N
1599502915.5,286047001.9,N
1599502935.3,286047001.4,N
1599502955.1,286047001.9,N
1599502975.9,286047002.2,N
1599502995.7,286046999.7,N
1599503015.5,286046999.9,N
1599503035.4,286047000.2,N
1599503055.2,286047002.3,N
1599503075.0,286047002.4,N
1599503076.0,286047002.4,N
1599503095.8,286046998.2,N
1599503115.6,286047000.6,N
1599503135.5,286047000.0,N
1599503155.3,286047000.0,N
1599503175.1,286047000.3,N
1599503195.9,286047000.6,N
1599503215.7,286047000.7,N
1599503235.5,286047000.3,N
1599503255.4,286047002.7,N
1599503275.2,286047002.6,N
1599503295.1,286047002.3,N
1599503296.0,286047002.3,N
1599503315.8,286047004.0,N
1599503335.6,286047001.8,N
1599503355.5,286047002.3,N
1599503375.3,286047000.3,N
1599503395.2,286047002.1,N
1599503415.9,286047002.3,N
1599503435.7,286047002.4,N
1599503455.6,286047004.0,Y
1599503475.4,286047002.8,P
1599503495.3,286047000.0,N
1599503515.1,286046999.7,N
1599503535.8,286046998.4,N
1599503555.7,286047000.0,N
1599503575.5,286047000.4,N
1599503595.4,286046999.9,N
1599503615.2,286047000.3,N
1599503635.0,286046999.8,N
1599503635.9,286046999.8,N
1599503655.8,286047002.3,N
1599503675.6,286047001.2,N
1599503695.4,286047001.0,N
1599503715.3,286047000.0,N
1599503735.1,286047001.1,N
1599503755.9,286046998.3,N
1599503775.7,286046997.1,N
1599503825.6,286046997.5,E
1599503835.5,286046999.1,N
1599503855.3,286046998.6,P
1599503875.2,286046998.3,P
1599503895.9,286046998.9,Y
1599503915.7,286047002.7,P
1599503935.6,286047002.0,N
1599503955.4,286047003.6,N
1599503975.2,286047003.1,N
1599503995.1,286047001.4,N
1599503996.0,286047001.4,N
1599504015.8,286047004.2,N
1599504035.7,286047002.6,N
1599504055.5,286047003.1,N
1599504075.3,286047003.2,N
1599504095.2,286047001.6,N
1599504115.0,286047004.1,N
1599504115.9,286047004.1,N
1599504135.8,286047002.2,N
1599504155.6,286047001.5,N
1599504175.4,286047002.3,N
1599504195.3,286047002.0,N
1599504215.1,286047002.1,N
1599504235.8,286047002.4,N
1599504255.7,286046999.9,N
1599504275.5,286047000.1,N
1599504295.4,286047002.7,N
1599504315.2,286047002.3,N
1599504335.0,286047000.3,N
1599504335.9,286047000.3,N
1599504355.8,286047000.0,N
1599504375.6,286047001.7,N
1599504395.4,286047002.4,N
1599504415.3,286047001.7,N
1599504435.1,286046999.9,N
1599504455.9,286047002.7,N
1599504475.7,286047002.8,N
1599504495.5,286047001.7,N
1599504515.4,286046999.7,N
1599504535.2,286047000.1,N
1599504555.0,286047000.1,N
1599504556.0,286047000.1,N
1599504575.8,286047000.4,N
1599504595.6,286047002.4,N
1599504615.5,286047002.8,N
1599504635.3,286047000.3,N
1599504655.1,286047000.7,N
1599504675.9,286047001.0,N
1599504695.7,286047000.5,N
1599504715.6,286046999.9,N
1599504735.4,286047000.5,N
1599504755.2,286047000.2,N
1599504775.1,286047000.3,N
1599504776.0,286047000.3,N
1599504795.8,286046999.8,N
1599504815.6,286047000.5,N
1599504835.5,286047003.9,Y
1599504855.3,286047002.7,P
1599504875.2,286047000.5,N
1599504895.9,286046998.9,N
1599504915.7,286046998.8,N
1599504935.6,286046999.6,N
1599504955.4,286046999.5,N
1599504975.2,286046999.4,N
1599504995.1,286046998.7,N
1599504996.0,286046998.7,N
1599505015.8,286046998.7,N
1599505035.7,286047000.8,N
1599505055.5,286046998.2,N
1599505075.3,286046998.1,N
1599505095.2,286046998.8,N
1599505115.0,286046998.3,N
1599505115.9,286046998.3,N
1599505135.7,286046998.7,N
1599505155.6,286046999.3,N
1599505175.4,286047000.5,N
1599505195.3,286047000.6,N
